EW1708 Weather Reports


Display with metric or nautical units.
time (UTC)temp
F
wind
direction
speed
MPH
gust
MPH
rain 1hr
in
rain 24hr
in
rain mn
in
humidity
%
barometer
mb
20260504081618 37 321 10.0 14.0 0.00 0.00 0.00 77 1002.9
20260504080619 37 0 7.0 14.0 0.00 0.00 0.00 76 1002.7
20260504070347 41 0 11.0 19.0 0.00 0.00 0.00 67 1002.0
20260504050354 49 13 16.0 27.0 0.00 0.00 0.00 51 1000.6
20260504043042 52 338 15.0 28.0 0.00 0.00 0.00 47 1000.6
20260504042054 53 0 18.0 29.0 0.00 0.00 0.00 46 1000.6
20260504035913 56 0 16.0 26.0 0.00 0.00 0.00 39 999.9
20260504034847 56 328 16.0 25.0 0.00 0.00 0.00 39 999.3
20260504033853 56 328 16.0 29.0 0.00 0.00 0.00 38 999.1
20260504032855 57 320 17.0 29.0 0.00 0.00 0.00 38 998.9
20260504031830 57 0 16.0 26.0 0.00 0.00 0.00 39 998.8
20260504030827 56 342 11.0 19.0 0.00 0.00 0.00 41 998.6
20260504025836 57 333 12.0 25.0 0.00 0.00 0.00 41 998.4
20260504024813 58 0 13.0 27.0 0.00 0.00 0.00 42 998.5
20260504023823 58 0 15.0 27.0 0.00 0.00 0.00 43 998.0
20260504021643 57 0 14.0 26.0 0.00 0.00 0.00 47 997.9
20260504015537 57 13 16.0 30.0 0.00 0.00 0.00 51 997.8
20260504014547 58 17 25.0 37.0 0.00 0.00 0.00 47 997.7
20260504013548 60 13 22.0 37.0 0.00 0.00 0.00 42 997.5
20260504012607 61 15 21.0 41.0 0.00 0.00 0.00 40 997.1
20260504011550 62 346 25.0 41.0 0.00 0.00 0.00 39 997.0
20260504005430 64 13 21.0 32.0 0.00 0.00 0.00 37 996.4
20260504004444 65 0 22.0 38.0 0.00 0.00 0.00 36 996.1
20260504003455 70 338 22.0 38.0 0.00 0.00 0.00 30 995.5
20260504001336 71 287 22.0 32.0 0.00 0.00 0.00 29 995.3
20260504000354 72 306 24.0 39.0 0.00 0.00 0.00 28 995.3
20260503235331 72 306 25.0 39.0 0.00 0.00 0.00 28 995.4
20260503234314 72 310 24.0 38.0 0.00 0.00 0.00 28 995.5
20260503233240 73 313 24.0 38.0 0.00 0.00 0.00 27 995.4
20260503232210 74 316 23.0 37.0 0.00 0.00 0.00 25 995.4
20260503231159 74 327 22.0 34.0 0.00 0.00 0.00 25 995.3
20260503230130 75 306 23.0 39.0 0.00 0.00 0.00 24 995.3
20260503223943 76 313 23.0 37.0 0.00 0.00 0.00 22 995.3
20260503222939 76 304 23.0 34.0 0.00 0.00 0.00 24 995.1
20260503221907 75 296 19.0 30.0 0.00 0.00 0.00 27 995.4
20260503220911 74 323 21.0 34.0 0.00 0.00 0.00 30 995.4
20260503215901 75 261 23.0 34.0 0.00 0.00 0.00 27 995.5
20260503214856 74 271 21.0 33.0 0.00 0.00 0.00 27 996.0
20260503213904 74 286 20.0 30.0 0.00 0.00 0.00 27 996.3
20260503211735 76 228 23.0 36.0 0.00 0.00 0.00 23 996.8
20260503210707 76 263 24.0 36.0 0.00 0.00 0.00 22 997.1
20260503205636 77 246 23.0 35.0 0.00 0.00 0.00 22 997.4
20260503203503 75 263 21.0 36.0 0.00 0.00 0.00 24 998.1
20260503202501 76 270 22.0 36.0 0.00 0.00 0.00 24 998.3
20260503200314 75 282 22.0 33.0 0.00 0.00 0.00 24 999.0
20260503195330 76 267 23.0 36.0 0.00 0.00 0.00 23 999.3
20260503194317 75 253 19.0 36.0 0.00 0.00 0.00 25 999.5
20260503193248 74 250 18.0 31.0 0.00 0.00 0.00 25 999.9
20260503191153 73 268 16.0 32.0 0.00 0.00 0.00 26 1000.5
20260503190156 72 254 19.0 32.0 0.00 0.00 0.00 25 1000.8
20260503185202 72 248 16.0 28.0 0.00 0.00 0.00 24 1001.2
20260503182955 70 265 18.0 25.0 0.00 0.00 0.00 25 1001.7
20260503181937 70 265 15.0 25.0 0.00 0.00 0.00 26 1002.1
20260503180935 70 271 14.0 25.0 0.00 0.00 0.00 26 1002.4
20260503174837 71 267 17.0 27.0 0.00 0.00 0.00 24 1002.8
20260503173838 71 267 19.0 27.0 0.00 0.00 0.00 25 1003.1
20260503172812 71 279 15.0 24.0 0.00 0.00 0.00 26 1003.3
20260503170709 70 269 17.0 27.0 0.00 0.00 0.00 25 1003.9
20260503150650 64 223 13.0 21.0 0.00 0.00 0.00 35 1006.1
20260503131148 50 235 13.0 20.0 0.00 0.00 0.00 57 1007.6
20260503130138 49 228 12.0 19.0 0.00 0.00 0.00 57 1007.7